Main page
METAR-TAF:

METAR-TAF

Airports :

Kashan, Iran

latitude: 33-59N, longitude: 051-27E, elevation: 982 m

Current weather observation

The report was made 2 hours and 2 minutes ago, at 08:00 UTC
Calm wind
Temperature 21°C
Humidity 17%
Pressure 1015 hPa
Visibility 10 km or more
no clouds below 1500 m and no cumulonimbus

METAR: OIFK 220800Z 00000KT CAVOK 21/M05 Q1015

Time: 13:32 (10:02 UTC)


TAF: missing

Weather observations and forecasts of more than 4000 airports (METAR and TAF reports).

The available stations are represented by yellow and red dots on the map.

Hover mouse over dot to see the name of the station.

Then click to see weather observations and forecasts.

To change the map : click on the green buttons with a black cross to zoom in, on the green button with a dash to zoom out, or on the green arrows for adjacent maps.


METAR-TAF: